Regional Weather Roundup
Issued by NWS

Home | Current Version | Previous Version | Graphics & Text | Print | Product List | Glossary On
Versions: 1 2 3 4 5 6 7 8 9 10 11 12 13 14 15 16 17 18 19 20 21 22 23 24 25 26 27 28 29 30 31 32 33 34 35 36 37 38 39 40 41 42 43 44 45 46 47 48 49 50
000
ASUS43 KFSD 251702
RWRSD

WEATHER ROUNDUP FOR SOUTH DAKOTA
NATIONAL WEATHER SERVICE SIOUX FALLS SD
1200 PM CDT WED APR 25 2018

NOTE: "FAIR" INDICATES FEW OR NO CLOUDS BELOW 12,000 FEET WITH NO
SIGNIFICANT WEATHER AND/OR OBSTRUCTIONS TO VISIBILITY.


SDZ001>005-009-010-012>017-251800-
NORTHWEST AND NORTH CENTRAL SOUTH DAKOTA

CITY           SKY/WX    TMP DP  RH WIND       PRES   REMARKS
BUFFALO          N/A     59  26  28 SW14      30.01F
FAITH            N/A     54  32  43 S20G28    30.11F
MOBRIDGE       SUNNY     58  33  39 SW15      30.12F
$$

SDZ012>016-024>037-041>051-057-063-072>074-251800-
SOUTHWEST AND SOUTH CENTRAL SOUTH DAKOTA

CITY           SKY/WX    TMP DP  RH WIND       PRES   REMARKS
RAPID CTY ARPT SUNNY     59  29  31 S13       30.11F
PIERRE         SUNNY     56  29  35 SW13      30.19F
CUSTER         SUNNY     51  14  22 W10G18    30.16F
ELLSWORTH AFB  SUNNY     58  29  32 S14       30.10F
PHILIP         SUNNY     58  28  32 SW16G26   30.17F
PINE RIDGE     SUNNY     53  27  36 SW15      30.20F
SPEARFISH      FAIR      57  25  28 SE5       30.11F
WINNER         FAIR      55  28  35 SW8       30.23F
$$

SDZ004>011-016>023-039-040-251800-
NORTHEAST SOUTH DAKOTA

CITY           SKY/WX    TMP DP  RH WIND       PRES   REMARKS
ABERDEEN       SUNNY     58  31  35 SW13G20   30.18F
WATERTOWN      SUNNY     50  30  46 W9        30.21F
BROOKINGS      SUNNY     48  28  46 W7        30.23F
SISSETON         N/A     57  26  30 W9        30.17F
$$

SDZ017-020-022-023-036>040-048>070-251800-
SOUTHEAST SOUTH DAKOTA

CITY           SKY/WX    TMP DP  RH WIND       PRES   REMARKS
SIOUX FALLS    SUNNY     53  26  35 VRB3      30.22F
HURON          SUNNY     52  35  52 S7        30.23F
CHAMBERLAIN    SUNNY     55  32  41 CALM      30.24F
MITCHELL       SUNNY     52  33  48 S5        30.25F
YANKTON        SUNNY     50  33  52 VRB6      30.24F
$$

ABBREVIATIONS USED IN REMARKS
   TC - TEMPERATURE IN CELSIUS
  WCI - WIND CHILL INDEX
   HX - HEAT INDEX
  VSB - VISIBILITY





USA.gov is the U.S. government's official web portal to all federal, state and local government web resources and services.